Date,TemperatureHighF,TemperatureAvgF,TemperatureLowF,DewpointHighF,DewpointAvgF,DewpointLowF,HumidityHigh,HumidityAvg,HumidityLow,PressureMaxIn,PressureMinIn,WindSpeedMaxMPH,WindSpeedAvgMPH,GustSpeedMaxMPH,PrecipitationSumIn
2013-1-1,57.4,42.5,33.6,32.8,25.1,18.9,75,54,26,30.25,30.16,5,1,8,0.00
2013-1-2,61.5,42.5,30.6,32.4,23.9,19.5,76,53,25,30.22,30.10,6,1,8,0.00
2013-1-3,62.8,43.2,32.0,32.4,26.5,21.3,78,57,26,30.25,30.10,4,1,6,0.00
2013-1-4,65.7,45.1,34.2,35.9,27.8,20.0,82,58,23,30.25,30.16,6,1,8,0.00
2013-1-5,54.9,44.5,36.1,41.1,34.8,30.1,84,71,47,30.22,30.04,6,0,8,0.20
2013-1-6,48.0,44.7,43.0,44.8,41.0,36.2,95,87,74,30.13,30.04,4,0,6,0.12
2013-1-7,61.0,49.0,34.5,46.8,38.4,33.8,98,71,39,30.22,0.00,4,0,5,0.00
2013-1-8,67.1,48.3,38.7,48.4,36.2,30.3,95,69,31,30.22,30.10,4,1,6,0.00
2013-1-9,45.7,42.3,40.3,36.8,30.7,25.9,82,65,50,30.13,29.99,8,2,13,0.00
2013-1-10,58.1,44.6,36.9,28.8,23.0,14.4,64,46,25,30.16,30.01,7,2,10,0.00
2013-1-11,51.6,41.8,33.6,33.0,24.8,19.0,79,53,34,30.22,30.07,8,2,10,0.00
2013-1-12,55.2,40.5,31.5,31.2,20.6,9.7,80,51,23,30.19,30.07,5,1,8,0.00
2013-1-13,56.7,38.6,27.3,21.2,11.9,2.0,63,39,17,30.19,30.13,5,1,8,0.00
2013-1-14,59.7,42.9,34.2,11.6,5.2,-1.9,40,24,17,30.37,30.16,6,1,8,0.00
2013-1-15,62.6,41.3,29.1,21.3,15.2,9.7,56,39,19,30.43,30.34,5,0,6,0.00
2013-1-16,63.0,43.2,31.8,27.7,20.5,15.3,69,45,21,30.37,30.22,6,1,8,0.00
2013-1-17,71.6,47.3,34.7,29.6,21.0,13.1,64,41,17,30.22,30.10,4,0,6,0.00
2013-1-18,72.5,48.6,35.8,33.3,21.3,11.8,71,41,16,30.19,30.10,4,0,5,0.00
2013-1-19,71.2,49.2,36.5,25.9,20.6,16.7,52,37,17,30.22,30.13,4,0,6,0.00
2013-1-20,72.9,48.9,36.9,29.4,21.2,13.9,60,39,16,30.19,30.10,5,0,8,0.00
2013-1-21,71.8,48.3,35.2,30.1,23.2,18.8,64,42,21,30.16,30.07,8,1,9,0.00
2013-1-22,70.0,49.5,37.4,35.1,28.9,24.0,73,50,22,30.10,29.99,3,0,4,0.00
2013-1-23,53.1,49.2,46.2,45.8,39.8,34.9,87,71,54,30.07,29.93,6,0,8,0.08
2013-1-24,57.6,51.7,48.2,49.9,47.7,44.2,98,87,64,30.16,30.04,5,0,6,0.16
2013-1-25,72.5,56.9,49.8,57.4,47.5,41.1,98,76,36,30.16,30.01,4,0,7,0.00
2013-1-26,61.2,50.4,45.0,52.2,38.0,25.7,97,67,29,30.04,29.99,11,3,13,0.00
2013-1-27,62.8,48.1,39.7,34.5,27.2,14.2,71,49,21,30.13,30.01,8,2,13,0.00
2013-1-28,65.7,49.1,37.4,33.8,27.4,20.3,69,47,23,30.25,30.10,7,2,10,0.00
2013-1-29,65.8,48.3,0.0,38.3,31.1,23.8,80,57,25,30.31,30.22,7,1,9,0.00
2013-1-30,75.4,55.0,41.4,37.7,27.6,21.0,76,41,18,30.31,30.22,4,1,6,0.00
2013-1-31,71.4,51.7,39.4,39.7,31.9,26.7,76,52,24,30.25,30.16,5,1,8,0.00
2013-2-1,75.2,53.3,39.9,45.7,34.9,28.0,87,58,22,30.19,30.10,4,0,7,0.00
2013-2-2,70.3,51.7,0.0,44.8,39.0,33.6,83,65,30,30.25,30.16,4,0,5,0.00
2013-2-3,66.7,51.3,42.3,42.8,35.9,29.5,87,61,29,30.22,30.10,7,1,8,0.00
2013-2-4,72.0,50.2,38.7,45.3,36.9,28.2,88,66,23,30.16,30.04,4,0,8,0.00
2013-2-5,57.0,49.5,43.7,42.1,37.6,30.6,82,65,43,30.13,30.04,9,2,12,0.00
2013-2-6,65.1,47.8,36.9,40.9,33.7,25.9,87,64,28,30.16,30.07,10,2,12,0.00
2013-2-7,57.9,45.3,37.6,43.5,32.6,22.1,87,65,33,30.16,29.99,10,2,13,0.08
2013-2-8,59.2,44.3,37.2,40.0,31.1,17.8,89,64,30,29.99,29.90,10,1,12,0.04
2013-2-9,66.6,47.6,34.9,26.0,17.6,9.7,57,35,15,30.07,29.96,6,1,10,0.00
2013-2-10,68.0,47.5,32.2,28.0,22.9,19.8,70,43,22,30.07,29.99,7,1,10,0.00
2013-2-11,71.1,49.3,34.3,29.9,21.3,10.2,71,42,14,30.22,30.01,5,1,9,0.00
2013-2-12,71.1,49.8,35.4,29.6,24.1,18.2,64,42,19,30.31,30.19,4,0,6,0.00
2013-2-13,74.5,51.3,36.9,33.8,26.6,17.4,74,45,16,30.31,30.19,8,1,9,0.00
2013-2-14,77.7,58.1,0.0,37.5,27.2,0.0,78,38,15,30.22,30.13,6,1,9,0.00
2013-2-15,80.6,57.9,43.3,35.2,28.6,22.0,59,39,17,30.25,30.19,4,0,6,0.00
2013-2-16,75.9,55.9,44.2,42.3,33.5,27.3,74,49,21,30.22,30.04,4,0,5,0.00
2013-2-17,73.8,53.4,42.6,45.6,33.3,22.2,87,54,18,30.04,29.96,6,1,8,0.00
2013-2-18,50.9,46.0,39.4,41.3,31.6,25.3,85,59,41,30.01,29.93,11,3,15,0.00
2013-2-19,48.0,43.0,36.9,37.9,30.8,22.0,79,63,44,29.96,29.75,12,3,16,0.51
2013-2-20,65.3,46.1,33.3,34.0,27.7,18.4,80,55,20,30.04,29.81,10,2,12,0.00
2013-2-21,69.3,48.6,35.2,36.4,26.3,14.9,84,51,17,30.13,30.01,7,1,10,0.00
2013-2-22,68.5,49.3,0.0,40.4,28.8,17.2,81,52,20,30.22,30.10,10,1,13,0.00
2013-2-23,68.2,53.5,45.5,44.1,27.8,13.5,84,46,17,30.22,30.10,8,2,11,0.00
2013-2-24,71.8,52.9,40.6,19.0,13.9,7.7,41,26,14,30.22,30.10,7,1,10,0.00
2013-2-25,72.5,50.8,35.4,30.8,25.4,17.8,67,42,19,30.22,30.13,8,1,9,0.00
2013-2-26,77.4,53.9,34.9,34.3,21.5,9.5,83,40,13,30.19,30.10,7,1,10,0.00
2013-2-27,76.8,53.7,37.2,31.5,22.6,15.2,54,36,15,30.34,30.16,8,1,10,0.00
2013-2-28,75.9,55.9,42.6,41.8,37.2,30.1,79,55,25,30.40,30.31,9,2,12,0.00
2013-3-1,83.1,60.0,44.6,47.7,37.0,28.0,86,52,19,30.40,30.22,6,0,7,0.00
2013-3-2,75.4,60.1,48.6,46.4,37.0,29.5,74,48,24,30.22,30.04,8,1,15,0.00
2013-3-3,66.2,55.6,47.8,44.0,37.5,28.9,73,54,30,30.10,30.01,10,2,15,0.00
2013-3-4,69.4,51.3,43.2,42.1,36.0,23.0,78,60,28,30.13,30.01,9,2,13,0.00
2013-3-5,63.5,50.7,41.0,38.2,31.3,21.9,81,52,28,30.04,29.84,16,4,21,0.04
2013-3-6,55.8,49.4,39.9,41.4,32.3,22.7,77,55,31,30.04,29.81,16,4,24,0.08
2013-3-7,63.5,48.8,37.4,41.5,30.5,19.1,86,57,25,29.99,29.84,6,1,10,0.00
2013-3-8,61.7,50.3,40.6,39.5,33.4,22.2,75,56,27,30.01,29.81,11,2,17,0.00
2013-3-9,75.9,54.3,39.4,43.5,29.3,18.1,86,49,15,30.25,30.01,9,2,12,0.00
2013-3-10,80.1,56.4,37.6,39.8,24.5,12.5,77,39,12,30.28,30.22,6,1,8,0.00
2013-3-11,83.1,58.1,40.3,32.1,25.3,20.0,57,35,14,30.25,30.07,8,1,10,0.00
2013-3-12,87.1,62.0,44.2,38.9,31.9,26.9,68,39,16,30.13,30.04,4,1,7,0.00
2013-3-13,87.8,68.0,47.7,45.2,37.6,31.0,78,41,18,30.13,30.07,5,1,6,0.00
2013-3-14,79.2,62.0,51.3,50.5,38.7,24.6,81,49,22,30.13,30.07,9,1,13,0.00
2013-3-15,78.1,58.6,46.0,41.3,35.1,25.3,71,47,22,30.10,30.01,9,1,13,0.00
2013-3-16,78.3,57.6,46.8,52.5,38.4,26.6,98,58,21,30.10,30.01,10,2,15,0.00
2013-3-17,78.3,57.2,43.2,42.1,31.6,20.3,78,44,15,30.10,30.01,10,2,13,0.04
2013-3-18,73.2,55.0,41.2,41.2,33.1,26.1,83,51,22,30.13,30.01,12,1,17,0.00
2013-3-19,74.1,55.0,44.8,41.4,33.8,19.3,75,52,21,30.10,30.01,11,2,18,0.04
2013-3-20,65.8,55.4,49.8,55.3,46.1,32.4,92,74,35,30.13,30.04,11,2,15,0.04
2013-3-21,75.2,55.5,40.8,45.8,32.6,18.1,81,51,15,30.10,29.99,9,2,12,0.00
2013-3-22,76.5,58.6,42.1,35.9,19.2,7.2,73,31,13,30.07,30.01,7,2,10,0.00
2013-3-23,77.2,55.9,40.5,23.4,17.5,11.9,48,28,13,30.10,30.01,9,2,11,0.00
2013-3-24,77.7,57.0,41.5,32.6,28.0,22.3,62,39,20,30.04,29.93,8,2,11,0.00
2013-3-25,67.5,51.8,41.7,44.5,34.3,24.6,86,57,25,29.99,29.90,11,2,14,0.00
2013-3-26,75.0,56.8,46.2,40.4,33.8,26.1,77,48,22,29.99,29.93,8,3,12,0.00
2013-3-27,70.7,55.9,45.3,46.2,38.4,30.9,73,55,31,30.01,29.90,10,3,14,0.00
2013-3-28,77.4,62.0,54.3,54.5,43.9,33.6,89,58,26,30.07,29.99,5,0,7,0.04
2013-3-29,83.7,63.2,48.9,50.1,39.3,30.4,88,51,19,30.07,30.01,9,2,11,0.00
2013-3-30,75.2,61.0,54.5,49.8,42.4,30.8,79,55,26,30.07,29.99,10,2,12,0.04
2013-3-31,70.9,59.0,49.5,51.5,42.6,27.8,84,60,26,30.07,29.99,9,2,13,0.16
2013-4-1,72.5,58.5,51.1,55.8,44.4,33.7,94,65,31,30.13,30.04,8,2,13,0.08
2013-4-2,74.5,57.8,44.8,52.2,41.6,35.5,94,61,30,30.16,30.07,8,1,10,0.00
2013-4-3,85.6,61.1,46.2,58.0,40.6,29.5,98,58,18,30.13,29.99,8,1,12,0.00
2013-4-4,66.9,58.3,52.5,54.6,46.6,41.3,87,67,43,30.10,29.99,8,2,13,0.35
2013-4-5,66.6,58.0,52.7,50.1,43.3,34.1,81,61,35,30.16,30.10,10,2,13,0.00
2013-4-6,67.1,57.4,52.3,51.1,45.2,38.7,92,67,39,30.16,30.13,9,2,13,0.00
2013-4-7,66.6,56.1,51.1,48.8,42.8,33.8,87,64,35,30.16,29.84,11,3,20,0.35
2013-4-8,73.6,56.9,45.0,46.4,25.9,12.0,82,39,13,30.01,29.78,11,2,18,0.04
2013-4-9,81.9,64.1,48.0,27.6,18.2,10.0,46,22,12,30.07,29.99,5,2,9,0.00
2013-4-10,62.2,61.1,59.7,21.4,19.4,14.8,25,23,19,30.07,30.04,3,1,6,0.00
2013-4-12,81.9,64.4,45.1,45.2,33.6,22.2,83,40,19,29.90,0.00,10,2,14,0.00
2013-4-13,70.2,55.6,45.3,42.7,36.0,29.2,78,53,27,29.90,29.81,11,2,15,0.00
2013-4-14,69.3,54.0,41.0,46.2,33.5,23.6,88,54,22,29.93,29.84,11,3,18,0.00
2013-4-15,62.6,51.6,43.7,44.5,30.9,17.3,84,51,24,29.93,29.84,10,3,15,0.00
2013-4-16,75.0,55.8,38.7,33.8,19.9,10.0,74,34,13,30.13,29.93,6,1,9,0.00
2013-4-17,77.2,60.3,46.4,21.4,14.6,7.0,37,21,13,30.22,30.10,5,1,10,0.00
2013-4-18,84.7,60.9,39.4,29.3,21.1,13.8,65,28,11,30.22,30.16,9,1,11,0.00
2013-4-19,87.3,64.6,45.9,33.7,28.3,20.0,60,32,13,30.19,30.07,9,2,13,0.00
2013-4-20,88.3,65.6,47.5,44.5,29.1,19.2,78,34,13,30.10,29.99,8,2,11,0.00
2013-4-21,94.3,68.9,47.3,38.9,27.8,18.1,64,31,11,30.04,29.93,7,1,8,0.00
2013-4-22,96.3,72.1,50.2,40.6,27.8,18.2,65,27,11,29.99,29.84,5,1,8,0.00
2013-4-23,69.8,60.8,53.1,33.7,25.5,18.5,48,29,20,29.93,29.87,4,1,6,0.04
2013-4-24,78.4,58.6,44.1,44.1,35.0,24.3,78,48,20,29.93,29.81,11,2,15,0.00
2013-4-25,72.0,58.7,50.5,45.9,40.0,34.2,80,54,31,30.13,29.93,8,2,14,0.00
2013-4-26,83.7,61.1,49.3,46.5,37.8,28.2,83,50,20,30.19,30.10,10,1,13,0.00
2013-4-27,92.5,63.3,46.0,46.3,36.9,26.0,85,48,15,30.19,30.04,8,1,12,0.00
2013-4-28,96.1,68.2,47.3,48.9,37.2,28.0,84,43,14,30.07,29.90,5,1,8,0.00
2013-4-29,95.4,72.8,53.8,50.0,33.7,19.6,73,34,11,29.90,29.78,9,2,15,0.00
2013-4-30,92.1,68.9,50.4,52.4,29.7,10.0,85,36,12,29.87,29.78,8,1,13,0.00
2013-5-1,92.1,72.2,59.7,24.2,13.7,9.1,17,14,10,30.07,29.87,5,1,9,0.20
2013-5-2,98.6,73.8,54.7,29.2,18.3,10.0,36,17,10,30.16,30.07,7,1,10,0.00
2013-5-3,97.9,73.0,50.0,30.2,19.7,10.6,47,18,11,30.10,29.81,8,1,11,0.00
2013-5-4,92.8,70.4,52.9,39.7,25.0,17.4,51,24,12,29.81,29.57,9,2,14,0.00
2013-5-5,72.7,61.0,53.4,39.3,35.2,27.8,57,42,23,29.81,29.60,10,2,15,0.00
2013-5-6,70.0,60.9,51.4,52.2,41.8,31.0,83,53,28,29.96,29.81,9,1,11,0.04
2013-5-7,75.6,61.9,52.0,52.4,41.4,25.4,89,55,22,30.04,29.96,8,2,11,0.00
2013-5-8,70.9,58.1,51.1,49.3,42.2,33.7,83,60,30,30.13,30.01,9,2,14,0.00
2013-5-9,74.5,59.6,51.8,48.0,40.8,34.6,81,55,27,30.16,30.04,10,2,13,0.00
2013-5-10,83.1,62.3,51.6,47.3,41.9,33.9,78,54,22,30.16,30.10,8,1,13,0.00
2013-5-11,97.0,69.3,50.0,52.1,36.8,20.0,86,44,11,30.16,30.04,8,1,13,0.00
2013-5-12,87.3,68.2,52.7,48.7,37.9,30.8,75,40,19,30.13,30.01,9,1,13,0.00
2013-5-13,88.0,65.5,48.9,46.8,39.0,30.9,77,46,18,30.07,29.96,9,2,17,0.00
2013-5-14,78.3,62.1,51.3,49.8,38.1,26.5,81,48,20,30.01,29.93,10,1,13,0.00
2013-5-15,54.3,52.5,51.3,40.9,38.9,36.4,68,61,53,30.01,29.99,11,3,18,0.00
2013-5-16,59.5,54.5,0.0,43.4,41.5,0.0,68,61,47,29.99,29.96,13,5,22,0.00
2013-5-17,71.4,58.1,51.4,44.3,37.1,26.0,75,51,24,30.07,29.96,11,2,15,0.00
2013-5-18,79.5,61.0,47.7,46.6,37.5,26.5,82,49,21,30.10,30.04,10,2,14,0.00
2013-5-19,90.9,66.7,48.6,49.3,31.5,17.3,82,40,12,30.10,29.99,10,2,15,0.00
2013-5-20,96.1,69.6,50.2,42.1,27.3,12.9,66,29,11,30.01,29.93,10,2,15,0.00
2013-5-21,72.9,59.3,50.9,45.5,34.9,26.1,72,45,22,29.99,29.90,12,3,15,0.00
2013-5-22,73.8,55.9,44.1,37.5,24.4,12.0,61,36,13,29.99,29.90,12,2,17,0.00
2013-5-23,70.3,56.2,45.9,40.0,31.5,22.3,74,45,23,30.01,29.90,10,2,15,0.00
2013-5-24,72.0,55.4,44.1,45.5,33.8,21.0,83,53,19,29.99,29.93,10,2,17,0.00
2013-5-26,55.4,54.6,54.0,45.3,44.8,44.0,72,70,66,30.13,0.00,11,3,16,0.00
2013-5-27,64.6,57.8,50.9,52.2,45.3,40.5,82,65,45,30.13,29.99,8,2,13,0.00
2013-5-28,73.8,61.7,55.8,58.4,47.7,38.1,94,65,32,30.01,29.90,11,2,14,0.00
2013-5-29,70.7,61.2,52.5,47.3,42.1,36.6,72,53,33,29.96,29.93,10,3,17,0.00
2013-5-30,79.9,61.4,47.8,49.2,35.2,21.5,86,48,19,30.01,29.93,10,2,15,0.00
2013-5-31,92.7,68.8,47.7,47.3,30.2,17.3,82,36,12,30.01,29.90,10,2,13,0.04
2013-6-1,98.6,75.4,52.7,45.3,30.1,20.0,69,28,10,29.96,29.78,10,2,13,0.00
2013-6-2,90.0,69.8,53.6,49.3,35.8,20.8,75,36,13,29.81,29.69,7,1,13,0.00
2013-6-3,81.9,64.6,51.1,48.7,38.8,30.5,78,46,20,29.87,29.72,8,2,15,0.00
2013-6-4,75.0,61.6,51.6,50.3,42.8,37.4,83,55,30,29.96,29.84,10,2,18,0.00
2013-6-5,80.1,63.0,53.4,48.6,40.9,29.8,81,51,21,29.99,29.90,8,2,12,0.00
2013-6-6,90.9,66.7,51.4,48.0,40.7,31.7,78,48,18,29.96,29.84,7,1,11,0.00
2013-6-7,104.2,74.9,51.4,53.1,39.1,21.3,86,41,9,29.90,29.75,7,1,10,0.00
2013-6-8,108.9,80.8,63.3,46.7,35.4,20.9,53,28,8,29.81,29.72,10,1,14,0.00
2013-6-9,79.9,65.1,58.5,50.5,45.0,36.6,73,52,27,29.90,29.78,10,2,14,0.00
2013-6-10,72.7,62.2,55.0,50.1,42.4,36.3,81,52,32,29.96,29.81,11,3,15,0.00
2013-6-11,81.7,65.2,55.4,51.0,41.8,32.5,80,49,21,29.99,29.93,9,1,13,0.00
2013-6-12,80.4,63.7,50.7,48.7,35.6,23.2,81,43,17,30.01,29.90,12,2,17,0.00
2013-6-13,54.0,52.1,49.6,42.6,40.9,37.0,72,66,55,30.01,29.99,4,0,8,0.00
2013-6-14,91.4,75.8,0.0,31.6,22.3,0.0,36,18,12,29.93,29.84,11,4,15,0.00
2013-6-15,81.3,61.9,48.7,48.3,36.2,27.9,79,45,20,30.01,29.84,9,1,13,0.16
2013-6-16,83.8,63.9,48.2,50.7,37.9,25.5,87,48,17,30.10,29.96,11,2,14,0.04
2013-6-17,75.2,61.9,50.7,50.5,43.3,30.7,84,56,26,30.10,30.01,11,2,14,0.00
2013-6-18,69.4,60.1,53.2,51.1,42.1,30.7,85,57,29,30.04,29.96,12,4,17,0.00
2013-6-19,75.6,61.3,48.6,46.5,36.5,27.6,82,46,22,30.04,29.99,11,2,15,0.00
2013-6-20,80.6,62.9,49.1,47.7,36.3,23.0,80,45,18,30.01,29.96,11,2,17,0.00
2013-6-21,84.6,65.5,48.7,49.1,34.2,18.1,83,42,15,29.99,29.93,13,2,17,0.00
2013-6-22,91.2,68.3,50.7,46.8,34.1,19.7,76,39,12,29.96,29.84,11,2,15,0.00
2013-6-23,69.4,62.0,56.7,55.2,51.5,42.1,90,70,50,29.90,29.84,9,2,14,0.00
2013-6-24,67.3,63.0,59.2,56.6,53.7,49.8,83,73,56,29.93,29.81,8,1,10,0.00
2013-6-25,79.3,68.4,61.5,56.9,52.6,46.1,81,60,35,30.01,29.90,11,2,15,0.00
2013-6-26,88.9,72.9,63.1,59.0,50.5,38.1,82,53,21,30.07,29.99,8,2,11,0.00
2013-6-27,96.3,75.6,58.1,60.8,44.1,30.6,88,44,16,30.07,30.01,10,2,14,0.00
2013-6-28,102.4,81.6,61.2,52.3,36.8,20.4,70,30,10,30.04,29.93,9,2,15,0.00
2013-6-29,106.2,83.3,62.4,45.1,33.6,21.3,54,24,9,29.96,29.84,10,2,17,0.35
2013-6-30,102.2,80.5,62.6,47.8,35.5,21.2,57,28,10,29.87,29.78,10,2,15,0.00
2013-7-1,101.5,80.2,61.0,49.4,36.1,21.6,62,30,10,29.87,29.81,10,1,14,0.00
2013-7-2,103.1,81.3,66.7,47.6,37.8,21.3,48,28,9,29.93,29.84,9,1,13,0.00
2013-7-3,103.5,78.9,62.2,52.0,38.6,21.6,66,34,10,29.90,29.78,10,1,15,0.00
2013-7-4,101.3,83.0,70.0,47.9,34.8,21.6,43,24,10,29.81,29.69,10,2,15,0.00
2013-7-5,78.3,64.9,56.5,47.6,40.4,30.2,69,45,24,29.81,29.72,10,2,15,0.00
2013-7-6,82.9,65.3,56.1,49.4,41.4,31.5,76,49,21,29.81,29.75,10,2,15,0.00
2013-7-7,89.1,67.7,51.8,53.2,39.9,22.5,87,47,13,29.90,29.78,8,1,10,0.00
2013-7-8,92.1,69.9,52.5,51.4,36.7,20.4,83,42,12,29.99,29.87,8,2,12,0.00
2013-7-9,104.0,77.6,56.1,49.7,32.1,13.9,72,31,9,30.01,29.93,7,1,11,0.00
2013-7-10,70.2,65.4,61.2,33.1,30.1,25.4,37,30,22,29.99,29.96,0,0,3,0.00
2013-7-13,94.6,76.8,0.0,49.8,28.4,17.3,76,25,11,29.96,0.00,9,1,13,0.00
2013-7-14,91.6,68.7,52.3,48.8,32.9,18.4,74,36,12,29.99,29.90,9,1,12,0.00
2013-7-15,81.7,62.6,53.1,48.8,41.7,30.4,74,53,21,29.93,29.81,9,2,13,0.00
2013-7-16,76.5,62.8,56.5,49.2,44.0,34.2,76,55,26,30.04,29.87,11,2,17,0.00
2013-7-17,89.1,67.8,57.6,51.0,41.9,28.8,77,48,18,30.10,30.01,7,2,11,0.12
2013-7-18,93.9,69.1,51.8,53.6,37.0,20.3,91,45,11,30.07,29.93,12,2,15,0.00
2013-7-19,97.9,71.3,51.8,52.9,37.0,20.4,84,42,11,29.96,29.81,9,1,13,0.00
2013-7-20,98.4,71.3,53.4,51.2,39.0,21.6,79,42,11,29.87,29.72,8,1,13,0.00
2013-7-21,97.2,71.5,53.6,54.0,39.3,21.6,85,42,11,29.90,29.78,8,1,11,0.04
2013-7-22,88.0,70.2,56.8,53.8,42.4,21.9,81,44,13,29.99,29.87,8,1,12,0.00
2013-7-23,88.2,72.8,0.0,47.7,37.3,21.5,56,33,16,30.01,29.93,6,1,9,0.16
2013-7-24,95.5,75.4,58.1,48.7,33.5,20.4,66,31,11,29.99,29.90,9,2,13,0.00
2013-7-25,92.1,73.0,59.2,45.8,33.3,17.7,56,31,12,30.01,29.93,10,1,15,0.00
2013-7-26,92.8,70.6,55.0,50.1,38.8,27.6,73,40,14,30.07,29.99,9,1,12,0.00
2013-7-27,93.4,69.9,55.9,53.1,41.6,28.1,83,46,14,30.01,29.87,7,1,11,0.00
2013-7-28,86.0,66.8,55.6,53.3,42.7,31.6,80,50,19,29.90,29.81,8,1,13,0.00
2013-7-29,83.8,63.7,54.7,49.8,43.1,31.2,79,54,20,30.01,29.84,9,2,15,0.00
2013-7-30,88.0,66.2,53.1,53.7,41.6,30.1,87,51,18,30.07,29.99,8,1,12,0.00
2013-7-31,84.2,65.0,55.2,49.3,40.8,27.7,77,49,19,30.07,30.01,10,1,14,0.00
2013-8-1,79.9,63.7,53.6,50.0,39.0,26.9,82,48,20,30.07,29.96,10,2,15,0.00
2013-8-2,86.9,65.3,51.1,52.8,38.5,21.5,86,48,16,29.99,29.90,10,2,15,0.00
2013-8-3,86.5,66.4,51.8,52.8,40.2,26.6,84,48,16,29.96,29.90,9,1,15,0.00
2013-8-4,86.4,64.5,54.1,50.0,42.8,29.3,78,54,18,30.01,29.93,8,1,11,0.00
2013-8-5,86.0,65.7,56.1,50.1,42.9,31.0,79,52,19,30.01,29.93,8,1,10,0.00
2013-8-6,79.5,63.2,55.6,50.5,44.7,33.0,81,57,23,30.04,29.96,11,2,18,0.00
2013-8-7,78.1,63.9,57.0,52.2,46.0,35.8,81,58,26,30.07,30.01,10,2,13,0.00
2013-8-8,80.8,64.2,56.7,54.3,47.4,35.1,82,61,23,30.04,29.93,8,1,12,0.00
2013-8-9,78.6,63.0,55.9,51.5,45.7,36.3,82,59,26,29.99,29.93,10,2,13,0.00
2013-8-10,81.0,64.9,56.7,53.5,46.9,34.3,86,59,23,30.04,29.99,9,2,15,0.00
2013-8-11,87.8,67.8,57.0,53.6,44.3,30.9,83,52,18,30.04,29.93,10,1,13,0.20
2013-8-12,91.4,67.9,52.2,54.7,39.0,20.5,86,47,12,29.99,29.93,8,1,12,0.00
2013-8-13,99.7,71.2,52.7,50.4,35.6,20.4,79,39,10,29.99,29.90,10,1,15,0.00
2013-8-14,88.9,69.7,0.0,49.9,39.8,0.0,75,42,13,29.96,29.90,11,2,15,0.00
2013-8-15,90.3,71.7,58.8,58.3,49.6,34.8,86,54,18,29.96,29.90,10,1,16,0.00
2013-8-16,90.3,72.6,60.4,65.5,46.9,28.2,96,53,16,29.99,29.93,11,2,15,0.00
2013-8-17,85.3,67.6,57.0,53.1,45.3,31.0,80,51,19,29.96,29.87,8,1,11,0.00
2013-8-18,101.8,76.0,56.3,58.2,42.2,21.6,88,46,10,29.90,29.78,8,1,10,0.00
2013-8-19,107.2,80.7,66.2,48.4,36.0,18.9,51,28,9,29.90,29.81,9,1,14,0.00
2013-8-20,94.6,73.3,60.4,53.4,39.5,26.8,68,37,14,29.87,29.81,10,2,15,0.00
2013-8-21,87.6,66.9,56.3,52.8,42.5,31.0,82,48,19,29.93,29.84,10,1,13,0.16
2013-8-22,83.5,65.2,55.4,52.9,43.4,32.2,83,52,21,29.93,29.87,9,1,15,0.00
2013-8-23,85.1,66.6,56.8,51.1,43.2,30.2,76,51,19,29.93,29.78,8,1,12,0.00
2013-8-24,83.3,66.2,54.0,55.0,46.2,34.0,86,56,22,29.90,29.84,13,2,17,0.00
2013-8-25,85.5,69.7,62.1,58.7,51.0,40.9,81,57,25,29.93,29.87,12,2,17,0.04
2013-8-26,86.0,68.3,59.0,55.7,45.6,33.3,84,51,20,29.99,29.87,10,2,14,0.00
2013-8-27,88.9,68.4,54.5,54.5,43.8,26.5,84,51,15,29.90,29.78,12,2,16,0.00
2013-8-28,88.0,70.0,57.0,57.8,48.7,35.3,88,55,20,29.90,29.84,9,1,13,0.00
2013-8-29,88.7,70.8,60.6,58.0,49.7,32.8,83,56,19,30.01,29.90,9,2,13,0.00
2013-8-30,98.6,74.3,59.2,61.6,45.6,27.9,87,49,13,30.01,29.90,10,1,14,0.00
2013-8-31,91.2,71.4,58.5,53.8,42.1,21.8,74,44,12,29.96,29.87,9,1,13,0.00
2013-9-1,89.1,70.8,59.5,53.5,44.5,31.3,72,47,18,29.90,29.84,9,1,12,0.00
2013-9-2,82.6,70.0,63.9,57.4,51.6,40.0,76,57,26,29.93,29.87,9,2,13,0.08
2013-9-3,81.9,67.7,58.6,55.6,45.7,29.7,82,54,21,29.96,29.87,10,2,15,0.00
2013-9-4,80.1,66.8,0.0,56.3,48.4,36.4,84,58,25,29.96,29.90,12,3,18,0.00
2013-9-5,81.5,67.7,59.0,53.1,45.5,32.8,76,51,22,29.96,29.90,10,2,14,0.00
2013-9-6,99.3,73.8,53.8,56.4,36.9,19.7,87,43,10,29.93,29.75,5,0,7,0.00
2013-9-7,104.4,78.3,59.9,40.9,28.7,18.5,50,24,9,29.84,29.75,9,1,11,0.00
2013-9-8,104.2,78.6,60.3,44.7,31.3,20.0,50,26,9,29.81,29.66,7,1,10,0.00
2013-9-9,104.7,77.6,61.3,44.7,32.3,20.0,51,27,9,29.75,29.63,11,1,14,0.12
2013-9-10,86.7,69.5,58.1,53.8,44.5,33.8,72,47,19,29.81,29.63,10,1,15,0.00
2013-9-11,81.5,68.4,0.0,53.0,47.1,0.0,71,51,27,29.90,29.81,8,2,11,0.00
2013-9-12,89.4,69.3,61.0,56.4,48.7,34.0,81,55,20,29.90,29.81,10,1,15,0.00
2013-9-13,90.9,68.5,58.3,52.5,44.8,29.5,76,51,18,29.81,29.66,10,1,17,0.00
2013-9-14,79.0,63.7,56.3,53.4,46.5,38.7,82,59,28,29.72,29.63,10,1,13,0.00
2013-9-15,84.6,66.2,55.9,53.7,46.0,34.0,80,56,21,29.78,29.66,9,2,13,0.00
2013-9-16,86.4,67.8,58.1,58.0,47.4,33.6,87,57,19,29.78,22.16,11,2,15,0.00
2013-9-17,77.0,65.2,58.5,51.7,44.1,30.8,76,52,23,29.78,29.69,11,2,17,0.00
2013-9-18,91.6,67.1,51.6,51.7,34.3,20.0,82,42,12,29.78,29.69,12,2,15,0.00
2013-9-19,99.3,71.6,51.1,37.6,28.3,13.9,58,29,10,29.75,29.63,8,1,13,0.00
2013-9-20,78.6,64.1,52.2,51.7,44.1,31.0,74,52,32,29.72,29.63,12,2,19,0.00
2013-9-21,67.6,62.1,55.9,55.7,50.2,39.9,83,67,39,29.75,29.69,9,3,15,0.43
2013-9-22,75.9,62.1,50.9,57.5,45.5,35.2,94,61,28,29.87,29.75,9,2,13,0.00
2013-9-23,91.2,67.6,52.0,56.2,44.5,29.5,90,53,17,29.87,29.78,9,1,13,0.00
2013-9-24,77.4,64.1,56.8,52.4,43.5,31.5,82,53,23,29.84,29.75,11,3,17,0.00
2013-9-25,75.9,61.6,54.1,38.4,33.0,23.6,56,39,20,29.78,29.66,10,2,15,0.00
2013-9-26,84.9,62.9,46.0,40.4,28.4,16.3,74,36,13,29.81,29.66,9,1,13,0.00
2013-9-27,72.1,71.2,0.0,34.3,23.3,0.0,39,20,19,29.93,29.90,4,2,6,0.00
2013-9-28,72.1,72.1,72.1,22.8,22.8,22.8,19,19,19,29.93,29.93,2,2,4,0.00
2013-9-29,72.1,72.1,72.1,22.8,22.8,22.8,19,19,19,29.93,29.93,2,2,4,0.00
2013-9-30,72.1,72.1,72.1,22.8,22.8,22.8,19,19,19,29.93,29.93,2,2,4,0.00
2013-10-1,72.1,72.1,72.1,22.8,22.8,22.8,19,19,19,29.93,29.93,2,2,4,0.00
2013-10-2,72.1,72.1,72.1,22.8,22.8,22.8,19,19,19,29.93,29.93,2,2,4,0.00
2013-10-3,72.1,72.1,72.1,22.8,22.8,22.8,19,19,19,29.93,29.93,2,2,4,0.00
2013-10-4,72.1,72.1,72.1,22.8,22.8,22.8,19,19,19,29.93,29.93,2,2,4,0.00
2013-10-5,72.1,72.1,72.1,22.8,22.8,22.8,19,19,19,29.93,29.93,2,2,4,0.00
2013-10-6,72.1,72.1,72.1,22.8,22.8,22.8,19,19,19,29.93,29.93,2,2,4,0.00
2013-10-7,72.1,72.1,72.1,22.8,22.8,22.8,19,19,19,29.93,29.93,2,2,4,0.00
2013-10-8,72.1,72.1,72.1,22.8,22.8,22.8,19,19,19,29.93,29.93,2,2,4,0.00
2013-10-9,72.1,72.1,72.1,22.8,22.8,22.8,19,19,19,29.93,29.93,2,2,4,0.00
2013-10-17,70.3,62.5,56.7,15.3,11.9,9.2,22,17,14,29.81,29.75,2,0,3,0.00
2013-10-18,92.5,66.5,48.7,27.3,21.0,13.9,41,23,11,29.84,29.75,4,0,5,0.00
2013-10-19,93.6,67.1,50.2,34.3,25.0,12.5,54,28,11,29.84,29.78,4,0,5,0.00
2013-10-20,92.7,66.3,49.5,35.2,27.4,16.9,58,31,12,29.84,29.69,7,0,9,0.00
2013-10-21,89.6,63.8,47.8,43.6,33.3,21.1,72,40,12,29.75,29.66,5,0,6,0.00
2013-10-22,91.2,64.2,47.5,45.5,36.1,21.8,78,45,12,29.78,29.66,4,0,5,0.00
2013-10-23,88.0,61.5,47.1,48.0,37.8,28.2,82,50,18,29.72,29.60,4,0,5,0.00
2013-10-24,70.7,55.7,49.3,46.8,40.2,31.3,83,61,27,29.84,29.69,7,1,13,0.00
2013-10-25,84.9,60.5,47.3,48.2,38.6,25.7,86,54,16,29.87,29.78,4,0,5,0.00
2013-10-26,89.2,63.4,46.9,48.6,33.5,20.0,84,45,13,29.84,29.72,3,0,5,0.00
2013-10-27,66.4,54.4,46.4,48.4,39.2,31.6,84,59,34,29.75,29.37,22,4,28,0.04
2013-10-28,62.4,53.5,45.5,45.2,38.4,29.9,83,60,33,29.57,29.37,11,3,24,0.00
2013-10-29,66.0,56.1,48.0,45.0,37.5,26.8,74,54,26,29.75,29.54,9,2,11,0.00
2013-10-30,74.7,55.8,42.8,43.9,34.1,23.8,84,54,21,29.81,29.72,6,0,6,0.00
2013-11-4,57.4,56.7,55.2,12.4,11.9,10.7,20,20,19,29.69,0.00,4,1,5,0.00
2013-11-5,80.2,61.0,47.8,21.7,16.2,9.8,33,22,12,29.84,29.66,4,0,6,0.00
2013-11-6,79.0,59.2,46.0,29.6,22.1,14.9,47,29,15,29.84,29.75,6,0,8,0.00
2013-11-7,83.3,60.7,48.9,30.1,23.2,12.4,46,29,13,29.75,29.63,10,1,11,0.00
2013-11-8,81.7,59.5,46.2,41.2,33.9,24.8,73,45,17,29.66,29.51,8,1,13,0.00
2013-11-9,58.5,48.7,45.9,44.6,38.2,35.5,76,68,48,29.57,29.54,0,0,3,0.00
2013-11-11,73.6,61.9,0.0,49.8,36.4,0.0,89,43,23,29.72,29.60,4,0,6,0.00
2013-11-12,80.8,62.0,51.6,41.1,33.5,24.6,58,40,17,29.81,29.69,5,0,7,0.00
2013-11-13,51.6,50.3,49.1,35.6,34.6,33.3,60,56,51,29.78,29.75,0,0,0,0.00
2013-11-14,77.7,58.4,46.9,50.8,40.8,32.0,89,58,23,29.63,0.00,8,1,9,0.00
2013-11-15,73.4,54.0,43.5,43.0,30.3,17.3,78,47,16,29.39,29.25,8,1,11,0.00
2013-11-16,65.1,52.0,43.9,44.2,37.1,24.9,86,62,26,29.48,29.28,10,2,15,0.00
2013-11-17,70.0,55.7,48.7,47.4,39.3,26.1,86,62,24,29.60,29.45,7,2,9,0.00
2013-11-18,62.8,53.5,42.3,44.6,38.5,32.0,84,59,32,30.14,30.05,8,1,10,0.00
2013-11-19,62.2,54.7,48.4,55.4,46.1,39.2,93,74,44,30.11,29.96,5,0,6,0.31
2013-11-20,60.8,56.5,54.0,59.0,53.4,50.0,98,90,72,29.96,29.87,4,0,8,0.39
2013-11-21,64.9,55.1,0.0,50.0,39.2,32.0,96,49,16,29.96,29.90,5,1,10,0.12
2013-11-22,74.8,58.5,49.3,32.0,32.0,32.0,21,17,13,30.02,29.90,5,1,9,0.00
2013-11-23,69.6,54.5,41.7,32.0,32.0,32.0,60,30,17,30.08,29.96,6,0,8,0.00
2013-11-24,72.1,51.3,39.6,39.2,32.6,32.0,77,51,21,30.25,30.05,3,0,5,0.00
2013-11-25,71.6,51.1,38.7,41.0,33.7,32.0,81,55,23,30.28,30.20,4,0,5,0.00
2013-11-26,66.7,51.2,42.4,41.0,35.0,32.0,78,56,24,30.25,30.02,4,0,5,0.00
2013-11-27,66.9,52.1,42.6,44.6,37.6,33.8,83,60,32,30.02,29.81,4,0,4,0.00
2013-11-28,75.4,55.0,44.6,42.8,34.8,32.0,79,51,18,30.08,29.84,4,0,6,0.00
2013-11-29,76.8,56.4,43.0,37.4,32.9,32.0,70,44,18,30.20,30.08,5,0,6,0.00
2013-11-30,74.8,54.1,42.3,41.0,34.2,32.0,73,50,21,30.23,30.17,3,0,4,0.00
2013-12-1,69.6,61.2,0.0,42.8,33.9,32.0,78,37,24,30.28,30.23,4,1,4,0.00
2013-12-2,71.1,59.9,0.0,50.0,38.1,32.0,86,49,22,30.25,29.96,12,2,15,0.00
2013-12-3,59.2,49.2,39.4,55.4,35.9,32.0,98,47,25,29.96,29.78,12,2,18,0.00
2013-12-4,60.1,42.6,29.8,32.0,32.0,32.0,42,27,17,30.05,29.90,5,0,8,0.00
2013-12-5,58.6,37.5,25.0,32.0,32.0,32.0,48,32,17,30.14,29.99,4,0,8,0.00
2013-12-6,54.5,40.7,26.8,42.8,34.0,32.0,85,52,26,30.14,29.93,7,2,9,0.20
2013-12-7,53.2,43.2,32.2,42.8,35.2,32.0,85,55,24,30.17,29.93,8,3,13,0.55
2013-12-8,52.9,36.8,29.3,32.0,32.0,32.0,77,45,21,30.23,30.11,4,1,8,0.00
2013-12-9,58.5,39.9,29.7,32.0,32.0,32.0,52,31,17,30.34,30.17,8,2,9,0.00
2013-12-10,57.9,39.6,28.4,32.0,32.0,32.0,70,43,20,30.31,30.14,6,0,8,0.00
2013-12-11,62.6,42.8,32.0,32.0,32.0,32.0,67,41,19,30.20,30.11,7,0,9,0.00
2013-12-12,38.1,36.5,34.3,32.0,32.0,32.0,56,51,47,30.17,30.14,0,0,0,0.00
2013-12-13,65.8,48.8,32.4,35.6,32.1,32.0,80,41,20,30.25,30.17,4,0,6,0.00
2013-12-14,68.4,47.3,35.1,33.8,32.0,32.0,67,42,17,30.31,30.20,5,0,6,0.00
2013-12-15,69.6,48.1,36.5,32.0,32.0,32.0,68,43,20,30.31,30.17,3,0,4,0.00
2013-12-16,74.3,52.3,40.3,32.0,32.0,32.0,54,36,16,30.20,30.05,4,0,6,0.00
2013-12-17,67.6,51.6,40.5,35.6,32.1,32.0,66,42,23,30.11,29.96,2,0,4,0.00
2013-12-18,65.7,51.4,42.8,44.6,35.2,32.0,83,50,24,29.99,29.69,13,1,20,0.00
2013-12-19,65.1,50.4,40.3,42.8,33.4,32.0,82,40,15,29.87,29.64,10,1,20,0.00
2013-12-20,68.0,49.8,35.1,32.0,32.0,32.0,28,20,15,29.93,29.81,6,1,9,0.00
2013-12-21,72.0,50.3,37.4,37.4,32.7,32.0,73,39,16,30.02,29.87,3,0,5,0.00
2013-12-22,73.2,51.4,38.3,41.0,32.9,32.0,80,50,16,30.23,29.99,4,0,6,0.00
2013-12-23,69.1,50.7,39.7,33.8,32.0,32.0,66,44,22,30.28,30.20,4,0,4,0.00
2013-12-24,75.9,54.0,40.3,35.6,32.1,32.0,67,40,15,30.25,30.14,4,0,6,0.00
2013-12-25,71.8,51.8,41.0,35.6,32.2,32.0,66,41,21,30.20,30.11,4,0,5,0.00
2013-12-26,74.1,52.0,39.9,39.2,32.2,32.0,71,43,16,30.17,30.11,3,0,4,0.00
2013-12-27,62.1,48.2,38.1,33.8,32.1,32.0,70,49,27,30.17,30.05,3,0,5,0.00
2013-12-28,73.2,50.5,34.9,35.6,32.1,32.0,77,41,14,30.05,29.96,5,0,8,0.00
2013-12-29,72.9,55.1,42.6,32.0,32.0,32.0,43,22,14,30.11,29.96,4,0,6,0.00
2013-12-30,71.2,49.8,37.0,32.0,32.0,32.0,58,40,17,30.17,30.05,4,0,6,0.00
2013-12-31,68.7,48.8,38.1,32.0,32.0,32.0,65,41,17,30.14,30.02,4,0,5,0.00
2014-1-1,72.7,50.6,37.0,32.0,32.0,32.0,49,31,14,30.14,29.99,3,0,5,0.00
2014-1-2,73.4,53.0,41.2,32.0,32.0,32.0,51,33,16,30.08,29.93,4,0,6,0.00